DF1LON Weather Reports


Display with metric or nautical units.
time (UTC)temp
F
wind
direction
speed
MPH
gust
MPH
rain 1hr
in
rain 24hr
in
rain mn
in
humidity
%
barometer
mb
20260502130202 75 158 1.0 1.0 0.00 0.00 0.00 5 1014.9
20260502123201 76 202 6.0 6.0 0.00 0.00 0.00 5 1014.9
20260502122202 76 158 2.0 3.0 0.00 0.00 0.00 5 1015.9
20260502121202 75 202 0.0 0.0 0.00 0.00 0.00 5 1015.9
20260502120202 75 202 7.0 7.0 0.00 0.00 0.00 5 1015.9
20260502115202 75 158 8.0 9.0 0.00 0.00 0.00 5 1015.9
20260502114202 75 225 5.0 5.0 0.00 0.00 0.00 5 1015.9
20260502113202 75 180 6.0 6.0 0.00 0.00 0.00 5 1015.9
20260502112202 74 202 6.0 6.0 0.00 0.00 0.00 5 1015.9
20260502111202 74 202 7.0 7.0 0.00 0.00 0.00 5 1015.9
20260502110201 73 158 2.0 2.0 0.00 0.00 0.00 5 1015.9
20260502105202 73 225 5.0 5.0 0.00 0.00 0.00 5 1016.9
20260502104202 73 158 4.0 4.0 0.00 0.00 0.00 5 1016.9
20260502103202 73 248 6.0 6.0 0.00 0.00 0.00 5 1016.9
20260502102203 73 180 0.0 0.0 0.00 0.00 0.00 5 1016.9
20260502101202 71 202 0.0 0.0 0.00 0.00 0.00 5 1016.9
20260502100201 71 158 0.0 0.0 0.00 0.00 0.00 5 1016.9
20260502091202 67 180 4.0 4.0 0.00 0.00 0.00 5 1017.9
20260502090202 66 180 4.0 4.0 0.00 0.00 0.00 5 1017.9
20260502071202 62 202 6.0 7.0 0.00 0.00 0.00 5 1017.9
20260502070202 61 135 6.0 6.0 0.00 0.00 0.00 5 1017.9
20260502065201 60 158 1.0 1.0 0.00 0.00 0.00 5 1017.9
20260502064202 61 112 8.0 9.0 0.00 0.00 0.00 5 1016.9
20260502063202 61 135 7.0 7.0 0.00 0.00 0.00 5 1016.9
20260502062201 60 135 7.0 7.0 0.00 0.00 0.00 5 1017.9
20260502061202 59 158 6.0 6.0 0.00 0.00 0.00 5 1016.9
20260502060202 58 135 4.0 5.0 0.00 0.00 0.00 5 1016.9
20260502055202 57 135 6.0 6.0 0.00 0.00 0.00 5 1017.9
20260502054202 57 135 2.0 3.0 0.00 0.00 0.00 6 1017.9
20260502053202 57 158 2.0 2.0 0.00 0.00 0.00 6 1017.9
20260502052201 56 180 0.0 0.0 0.00 0.00 0.00 6 1017.9
20260502051202 55 135 0.0 0.0 0.00 0.00 0.00 6 1017.9
20260502050202 54 135 6.0 6.0 0.00 0.00 0.00 6 1017.9
20260502045202 54 135 5.0 5.0 0.00 0.00 0.00 6 1017.9
20260502044202 53 135 0.0 0.0 0.00 0.00 0.00 6 1017.9
20260502043202 53 135 0.0 0.0 0.00 0.00 0.00 6 1017.9
20260502042202 53 135 0.0 0.0 0.00 0.00 0.00 6 1017.9
20260502041202 53 135 0.0 0.0 0.00 0.00 0.00 6 1017.9
20260502040202 53 135 0.0 0.0 0.00 0.00 0.00 6 1017.9
20260502035202 54 135 0.0 0.0 0.00 0.00 0.00 6 1017.9
20260502034202 53 135 2.0 3.0 0.00 0.00 0.00 6 1017.9
20260502033202 53 135 0.0 0.0 0.00 0.00 0.00 6 1017.9
20260502032202 54 158 0.0 0.0 0.00 0.00 0.00 6 1017.9
20260502031202 54 158 3.0 3.0 0.00 0.00 0.00 6 1017.9
20260502030201 54 158 0.0 0.0 0.00 0.00 0.00 6 1017.9
20260502025202 55 158 0.0 0.0 0.00 0.00 0.00 6 1017.9
20260502024202 55 225 0.0 0.0 0.00 0.00 0.00 6 1017.9
20260502023202 55 135 0.0 0.0 0.00 0.00 0.00 6 1017.9
20260502022202 56 135 0.0 0.0 0.00 0.00 0.00 6 1017.9
20260502021202 57 135 0.0 0.0 0.00 0.00 0.00 6 1017.9
20260502020202 57 158 5.0 5.0 0.00 0.00 0.00 5 1017.9
20260502015202 57 158 0.0 0.0 0.00 0.00 0.00 5 1017.9
20260502014202 57 135 6.0 7.0 0.00 0.00 0.00 5 1017.9
20260502013202 57 135 0.0 0.0 0.00 0.00 0.00 5 1017.9
20260502012202 57 135 0.0 0.0 0.00 0.00 0.00 5 1018.9
20260502011202 57 135 0.0 0.0 0.00 0.00 0.00 5 1018.9
20260502010201 58 135 0.0 0.0 0.00 0.00 0.00 5 1018.9
20260502005202 58 135 7.0 7.0 0.00 0.00 0.00 5 1018.9
20260502004201 58 158 0.0 0.0 0.00 0.00 0.00 5 1018.9
20260502003202 58 158 0.0 0.0 0.00 0.00 0.00 5 1018.9
20260502002202 59 135 5.0 5.0 0.00 0.00 0.00 5 1018.9
20260502001202 59 135 4.0 4.0 0.00 0.00 0.00 5 1018.9
20260502000203 59 135 6.0 6.0 0.00 0.00 0.00 5 1018.9
20260501235202 59 135 5.0 5.0 0.00 0.00 0.00 5 1018.9
20260501234202 59 135 5.0 5.0 0.00 0.00 0.00 5 1019.9
20260501233202 59 135 0.0 0.0 0.00 0.00 0.00 5 1019.9
20260501232202 59 135 0.0 0.0 0.00 0.00 0.00 5 1019.9
20260501231202 59 135 0.0 0.0 0.00 0.00 0.00 5 1019.9
20260501230202 59 112 0.0 0.0 0.00 0.00 0.00 5 1019.9
20260501225202 60 112 0.0 0.0 0.00 0.00 0.00 5 1019.9
20260501224203 60 112 0.0 0.0 0.00 0.00 0.00 5 1019.9
20260501223202 60 112 0.0 0.0 0.00 0.00 0.00 5 1019.9
20260501222202 61 112 0.0 0.0 0.00 0.00 0.00 5 1019.9
20260501221202 61 112 0.0 0.0 0.00 0.00 0.00 4 1019.9
20260501220202 61 112 0.0 0.0 0.00 0.00 0.00 4 1019.9
20260501215203 62 112 0.0 0.0 0.00 0.00 0.00 4 1019.9
20260501214202 62 112 0.0 0.0 0.00 0.00 0.00 4 1019.9
20260501213202 62 112 0.0 0.0 0.00 0.00 0.00 4 1019.9
20260501212202 63 112 0.0 0.0 0.00 0.00 0.00 4 1019.9
20260501211202 63 112 0.0 0.0 0.00 0.00 0.00 4 1019.9
20260501210202 64 112 0.0 0.0 0.00 0.00 0.00 4 1019.9
20260501205202 65 112 0.0 0.0 0.00 0.00 0.00 4 1019.9
20260501204202 66 112 0.0 0.0 0.00 0.00 0.00 3 1019.9
20260501203202 66 135 0.0 0.0 0.00 0.00 0.00 3 1019.9
20260501202202 66 135 0.0 0.0 0.00 0.00 0.00 3 1019.9
20260501201202 67 112 0.0 0.0 0.00 0.00 0.00 3 1019.9
20260501200202 68 112 0.0 0.0 0.00 0.00 0.00 3 1019.9
20260501194202 68 112 5.0 5.0 0.00 0.00 0.00 3 1019.9
20260501193202 68 135 5.0 5.0 0.00 0.00 0.00 3 1019.9
20260501192202 69 158 6.0 7.0 0.00 0.00 0.00 3 1019.9
20260501191202 69 112 7.0 7.0 0.00 0.00 0.00 3 1019.9
20260501190202 70 135 6.0 6.0 0.00 0.00 0.00 3 1019.9
20260501185202 70 112 5.0 5.0 0.00 0.00 0.00 3 1019.9
20260501184202 71 112 2.0 3.0 0.00 0.00 0.00 3 1019.9
20260501183202 71 135 8.0 8.0 0.00 0.00 0.00 3 1019.9
20260501182202 72 135 6.0 6.0 0.00 0.00 0.00 3 1019.9
20260501181202 73 180 8.0 9.0 0.00 0.00 0.00 3 1019.9
20260501180202 73 135 10.0 12.0 0.00 0.00 0.00 2 1019.9
20260501175201 73 158 8.0 10.0 0.00 0.00 0.00 2 1018.9
20260501174202 74 112 8.0 9.0 0.00 0.00 0.00 2 1019.9
20260501173202 74 112 9.0 10.0 0.00 0.00 0.00 2 1019.9
20260501172202 74 135 8.0 9.0 0.00 0.00 0.00 2 1018.9
20260501171201 75 135 9.0 9.0 0.00 0.00 0.00 2 1019.9
20260501170202 75 135 6.0 7.0 0.00 0.00 0.00 2 1019.9
20260501165202 75 202 7.0 7.0 0.00 0.00 0.00 2 1019.9
20260501164202 75 112 8.0 9.0 0.00 0.00 0.00 2 1019.9
20260501163201 75 158 6.0 6.0 0.00 0.00 0.00 2 1019.9
20260501162202 75 135 0.0 0.0 0.00 0.00 0.00 2 1019.9
20260501161202 75 202 6.0 7.0 0.00 0.00 0.00 2 1019.9
20260501160202 75 202 9.0 11.0 0.00 0.00 0.00 2 1019.9
20260501155202 74 225 7.0 7.0 0.00 0.00 0.00 2 1019.9
20260501154202 74 135 9.0 10.0 0.00 0.00 0.00 2 1019.9
20260501153202 74 112 8.0 11.0 0.00 0.00 0.00 2 1019.9
20260501152202 74 68 10.0 12.0 0.00 0.00 0.00 2 1019.9
20260501151202 74 68 6.0 6.0 0.00 0.00 0.00 2 1020.9
20260501150202 74 112 7.0 7.0 0.00 0.00 0.00 2 1020.9